Lapse_Rate
5.1 5.1 5.2 5.3 5.4 5.4 5.6 5.8 6.0 6.2 6.3 6.4 6.4 6.4 6.4 6.5 6.6 6.6 6.7 6.8 6.8 6.8 6.7 6.8 6.9 7.0 6.8 6.5 7.1 7.7 8.7 9.5 9.6 9.2 9.1 9.6 8.7 9.5 9.3 9.7 9.6 8.6 8.6 8.7 8.7
5.1 5.1 5.2 5.3 5.5 5.5 5.7 6.0 6.1 6.3 6.4 6.5 6.5 6.6 6.5 6.6 6.7 6.8 6.9 6.9 6.9 6.9 6.8 6.9 6.8 6.4 6.7 7.3 7.8 8.0 9.4 9.4 8.7 8.5 8.5 8.6 8.5 8.7 9.6 9.6 9.6 8.6 8.0 8.7 8.8
5.1 5.1 5.2 5.3 5.5 5.7 5.9 6.1 6.4 6.5 6.6 6.6 6.6 6.7 6.7 6.7 6.8 7.1 7.0 6.9 7.0 7.0 7.0 6.7 6.3 6.6 6.9 7.6 7.9 8.2 8.8 8.6 8.4 8.4 8.2 8.3 8.5 9.3 9.4 9.6 8.7 9.0 7.5 8.2 8.5
5.1 5.1 5.2 5.3 5.5 5.7 5.9 6.2 6.6 6.7 6.8 6.8 6.8 6.8 6.8 6.7 6.5 7.1 7.2 7.1 7.0 7.0 7.0 6.9 6.4 6.8 7.2 7.8 8.4 8.2 8.2 8.3 8.4 8.2 8.2 8.3 8.4 8.6 8.5 8.5 8.6 8.6 8.1 8.1 7.9
5.1 5.2 5.2 5.4 5.6 5.7 5.9 6.2 6.5 6.7 6.9 6.9 6.9 6.8 6.8 6.8 6.7 7.2 7.3 7.3 7.2 7.1 7.1 6.4 6.6 7.1 7.4 8.0 8.3 8.1 8.2 8.2 8.1 8.1 8.0 8.1 8.4 8.5 8.3 8.5 8.5 8.5 8.4 8.2 7.4
5.2 5.2 5.3 5.4 5.6 5.8 6.0 6.2 6.5 6.7 6.8 7.0 7.0 6.9 6.8 6.5 7.1 7.2 7.4 7.4 7.3 7.2 7.2 6.4 6.9 7.2 7.5 7.8 8.0 8.2 8.0 8.0 8.1 8.1 8.1 8.5 8.3 8.5 8.4 8.6 8.4 8.4 8.6 8.2 7.7
5.2 5.2 5.4 5.5 5.7 5.9 6.1 6.3 6.6 6.7 6.8 6.9 6.9 6.9 6.6 6.3 7.2 7.4 7.4 7.4 7.5 7.3 6.5 6.7 6.9 7.2 7.6 7.8 8.1 8.1 8.1 8.3 8.4 8.4 8.5 8.5 8.7 8.3 8.5 8.3 8.2 8.3 8.2 8.4 7.9
5.3 5.3 5.4 5.5 5.7 5.9 6.1 6.3 6.5 6.7 6.8 6.9 6.9 6.8 6.4 7.0 7.2 7.3 7.4 7.2 7.1 7.2 6.5 6.9 6.9 7.0 7.4 7.7 8.1 8.4 8.7 9.6 8.6 8.7 8.6 8.7 9.4 8.4 8.9 8.2 7.8 7.8 7.6 7.5 7.7
5.3 5.4 5.4 5.6 5.8 5.9 6.1 6.2 6.4 6.6 6.7 6.8 6.8 6.6 6.2 7.0 7.2 7.3 7.1 6.4 6.6 6.6 6.8 6.8 7.1 7.1 7.7 8.1 8.5 9.3 9.6 9.7 9.4 8.6 8.7 8.9 9.3 8.1 8.8 8.0 7.5 7.2 7.4 7.2 6.9
5.4 5.5 5.5 5.6 5.7 5.9 6.1 6.1 6.3 6.4 6.5 6.5 6.5 6.7 6.9 6.9 7.1 7.3 7.1 6.6 6.7 6.8 6.7 7.4 7.2 7.6 8.2 8.6 9.5 9.5 9.7 9.7 9.5 9.2 8.7 9.1 9.6 8.2 8.5 8.3 7.2 6.9 6.7 6.5 6.5
5.4 5.5 5.5 5.6 5.7 5.9 6.0 6.1 6.2 6.0 6.3 6.3 6.4 6.5 6.6 6.6 7.2 7.1 7.0 6.6 6.8 6.9 7.2 7.6 7.9 8.6 9.7 9.3 8.7 8.9 9.0 9.2 9.6 9.1 8.6 9.1 9.6 8.8 8.3 8.6 7.9 7.1 6.3 6.2 6.1
5.5 5.6 5.7 5.7 5.8 5.9 6.0 6.3 6.2 6.5 6.6 6.7 6.3 6.6 6.7 6.7 6.8 6.8 6.9 6.7 7.0 7.4 7.9 8.5 8.7 9.5 8.7 8.6 8.6 8.8 9.1 9.5 9.7 9.1 8.6 9.0 9.5 9.3 8.4 8.4 8.3 7.5 6.8 6.4 6.0
5.7 5.6 5.8 5.8 5.9 6.0 6.1 6.2 6.3 6.4 6.6 6.6 6.7 6.8 6.8 7.0 7.1 7.2 6.9 7.0 7.6 8.0 8.5 8.7 9.5 8.5 8.6 8.8 8.8 9.1 9.5 9.5 9.3 9.3 8.9 9.4 9.4 9.6 8.8 8.5 8.0 7.7 6.8 6.2 6.1
5.7 5.7 5.8 5.9 6.1 6.1 6.0 6.3 6.5 6.5 6.3 7.1 6.9 6.9 7.0 7.0 7.3 7.4 7.1 7.5 8.0 8.4 9.0 9.0 8.9 8.6 8.7 9.0 8.8 9.7 9.1 8.6 8.8 8.9 9.0 9.7 9.7 9.4 8.8 8.4 8.3 7.6 7.4 6.4 6.0
5.8 5.8 5.9 6.0 6.1 6.2 6.2 6.4 6.7 6.7 7.9 7.3 7.2 7.4 7.2 7.4 7.8 7.5 7.4 7.7 7.9 8.6 8.6 9.6 9.0 8.6 8.7 9.3 8.2 8.8 8.3 8.5 8.6 8.6 8.7 9.3 9.7 9.7 9.0 8.8 8.6 7.7 6.9 6.8 6.1
6.0 6.0 6.1 6.2 6.4 6.4 6.6 6.7 6.9 6.8 8.7 8.1 7.6 7.4 7.6 7.7 7.9 7.8 7.7 7.7 8.1 8.3 8.6 8.8 8.2 8.4 8.6 8.2 8.2 8.1 8.2 8.5 8.7 8.8 9.6 9.6 9.7 9.5 9.3 9.5 9.4 7.8 6.8 6.5 6.5
6.1 6.2 6.3 6.4 6.6 6.7 6.7 6.8 6.8 7.8 8.8 9.1 8.0 8.0 8.0 8.1 8.2 8.1 7.9 7.9 8.1 8.4 8.7 9.1 8.8 8.3 8.3 8.1 8.3 8.1 8.5 9.2 9.5 9.6 9.9 9.6 9.6 9.3 9.0 8.8 8.5 7.5 7.5 6.7 6.8
6.3 6.4 6.5 6.5 6.6 6.8 6.8 6.2 7.2 8.8 9.6 9.5 8.7 8.7 8.5 9.0 9.0 8.4 8.3 8.2 8.2 8.5 9.0 9.7 9.7 9.3 7.7 8.1 8.6 8.8 8.4 8.6 8.5 9.3 9.6 9.7 9.7 9.4 9.0 8.5 8.2 8.1 7.6 7.2 6.9
6.3 6.4 6.6 6.7 6.7 6.9 6.8 6.9 7.9 9.1 9.4 8.9 8.6 8.8 9.4 9.3 9.5 9.7 8.8 9.0 9.6 9.6 8.8 9.5 9.6 9.0 8.8 8.1 7.9 9.2 8.3 8.7 8.6 8.8 9.0 9.4 9.3 9.2 8.8 8.6 8.0 7.2 7.0 7.2 6.8
6.4 6.4 6.6 5.8 6.7 6.7 6.2 7.0 7.9 8.0 7.8 8.0 8.4 9.1 8.8 9.7 9.5 9.0 9.6 9.5 9.6 9.0 8.2 8.7 8.8 9.5 9.4 7.6 8.0 7.9 8.3 8.2 9.1 9.3 9.4 9.7 9.5 9.0 8.7 8.6 8.3 7.4 7.2 6.8 6.3
6.4 6.4 5.7 6.2 6.4 6.2 6.4 7.5 8.0 8.2 7.3 7.6 7.9 8.4 9.4 9.6 9.7 9.7 9.6 9.6 9.6 8.8 7.8 8.3 8.6 9.0 8.8 8.7 8.4 8.4 8.1 8.5 9.1 9.5 9.6 9.6 9.5 9.0 8.6 8.4 8.2 7.9 7.5 6.8 6.3
6.3 6.3 5.5 6.1 5.9 6.3 6.8 7.4 7.5 7.4 7.2 7.1 7.5 7.8 8.2 8.8 8.8 9.7 9.4 9.5 9.3 8.2 8.1 8.4 8.2 8.6 8.7 9.6 9.3 8.9 9.1 8.5 8.2 9.0 9.6 9.3 9.4 9.1 8.6 8.4 8.0 7.7 6.8 6.4 6.0
6.1 6.2 5.7 6.1 6.3 6.9 7.4 7.6 7.1 7.1 7.3 7.3 7.5 7.7 7.9 8.1 8.3 8.5 9.4 8.0 7.8 7.7 7.6 7.7 8.0 8.0 8.3 8.9 9.4 9.4 8.4 8.0 8.0 8.2 8.1 8.3 8.5 9.5 9.0 9.1 8.3 7.1 6.6 6.3 6.0
6.0 6.1 6.1 5.9 6.3 6.6 7.0 7.5 7.0 6.9 7.0 7.0 7.3 7.6 7.7 7.7 8.0 8.1 8.3 7.8 7.1 7.2 7.2 7.3 7.7 7.6 7.9 8.5 8.7 8.7 8.9 8.6 8.1 8.3 8.5 8.4 9.1 9.5 9.4 8.8 7.8 7.0 6.7 6.1 6.0
5.5 5.9 5.4 6.2 6.7 6.6 6.8 6.9 7.0 7.3 6.7 6.9 6.9 7.1 7.4 7.6 7.8 8.1 8.0 8.5 7.1 6.7 6.9 7.0 7.0 7.2 7.5 7.7 8.1 8.1 8.1 8.3 8.4 8.4 8.3 8.2 8.7 8.6 8.4 7.5 6.9 6.7 6.4 5.9 5.6
4.9 4.4 5.0 5.8 5.4 5.7 6.3 6.4 6.7 7.3 7.4 6.9 6.8 7.2 7.6 7.7 7.7 8.0 9.3 8.6 8.6 7.3 6.4 6.5 7.0 7.0 7.0 7.3 7.4 7.6 7.8 7.9 8.1 8.2 8.1 8.2 8.4 9.3 7.2 6.4 6.3 6.0 6.0 6.1 5.5
4.1 5.4 5.2 5.6 5.7 6.0 6.5 6.8 7.0 7.0 7.4 6.9 6.8 6.9 7.7 7.3 6.8 7.1 7.6 8.0 8.2 8.0 7.5 6.9 6.9 7.0 7.1 7.4 7.5 7.6 7.9 8.2 8.2 8.1 8.1 8.1 8.6 7.6 6.7 6.2 6.1 5.9 5.9 5.6 5.5
Wind_Speed
23 22 22 21 21 19 18 17 15 13 11 10 10 9 10 11 15 6 10 3 8 13 3 8 12 11 11 13 17 11 12 12 17 11 12 12 9 11 6 11 11 16 10 23 24
23 23 23 23 22 20 18 17 16 14 12 10 9 8 8 9 8 16 7 9 10 13 9 12 9 10 9 14 6 9 11 14 12 9 10 10 9 8 6 6 12 18 26 24 24
25 25 25 25 24 22 19 17 15 13 12 11 9 7 7 7 8 9 9 9 13 14 16 13 13 8 14 13 10 7 11 12 12 10 8 11 9 6 8 8 13 6 22 21 22
26 27 27 27 26 24 21 19 16 13 11 10 9 6 5 7 2 6 9 8 10 12 13 15 13 11 13 14 8 6 9 11 8 8 8 8 8 3 12 8 3 9 21 19 21
27 28 28 28 27 25 23 21 17 12 8 7 7 6 5 6 1 9 10 8 9 10 13 12 11 11 13 13 9 8 9 7 8 6 5 4 6 7 10 5 8 7 5 19 18
28 28 29 29 28 26 23 20 17 14 5 5 7 8 5 8 11 12 12 11 11 14 14 13 11 10 12 15 9 11 10 9 5 6 1 4 8 2 6 5 9 10 4 17 17
29 29 29 29 28 27 24 21 16 9 2 6 9 5 10 3 8 11 12 12 14 16 12 10 11 13 6 12 6 7 11 13 7 3 3 8 10 8 3 7 11 9 7 6 15
30 30 30 30 28 26 24 21 14 5 3 6 8 7 4 4 7 10 14 12 11 9 11 11 8 14 14 13 13 13 15 11 12 3 6 8 10 8 4 13 10 9 7 8 4
32 32 32 31 28 26 23 19 10 3 3 8 6 7 4 4 10 11 9 8 7 10 8 6 8 13 16 11 14 13 11 12 10 5 3 6 13 9 10 11 11 9 7 10 7
33 34 33 33 32 25 26 10 4 5 6 10 10 9 9 10 11 12 9 10 6 6 8 8 8 12 13 12 10 11 3 5 1 11 4 5 3 11 4 13 12 11 10 11 10
33 35 35 34 35 24 14 3 4 5 10 9 14 9 9 9 6 7 10 9 8 7 11 13 10 13 9 6 11 10 7 8 3 4 3 13 5 7 3 6 13 11 13 11 11
34 35 36 36 35 31 7 6 7 6 10 20 11 7 1 10 9 10 11 9 10 11 13 7 12 2 8 5 7 9 7 12 3 4 4 11 8 10 8 5 8 13 10 12 11
34 35 36 39 40 12 6 6 6 7 6 12 11 14 12 9 11 12 14 13 10 12 9 13 5 7 2 8 7 12 11 10 9 7 9 15 12 12 13 8 10 8 14 12 9
34 35 34 39 6 11 4 8 7 3 5 13 10 9 12 10 10 16 14 13 7 11 10 9 8 3 6 10 4 8 10 5 9 11 12 11 10 15 17 13 11 11 11 12 9
35 34 35 14 11 7 8 9 7 4 5 12 11 11 12 11 13 11 14 10 13 9 5 3 3 5 5 5 6 13 10 11 13 13 15 16 10 8 18 16 13 13 10 10 9
37 33 29 1 6 13 10 11 6 6 6 10 10 10 14 16 9 13 10 10 9 10 8 13 6 4 7 7 4 10 13 15 16 15 13 18 13 11 14 12 14 14 10 7 3
39 39 17 9 8 13 10 8 6 8 9 11 12 13 15 15 13 10 12 13 11 9 12 14 11 10 1 9 11 10 12 9 11 11 6 8 4 10 13 12 14 13 8 6 3
44 40 10 8 12 12 8 8 8 13 9 6 2 15 14 16 13 13 13 13 15 16 11 9 7 14 9 5 9 8 6 6 11 12 9 9 6 7 16 15 12 7 4 1 5
42 7 7 9 15 5 7 9 11 11 8 3 8 11 12 14 7 13 12 14 14 18 10 10 5 12 5 2 2 3 7 13 8 13 13 11 4 9 13 11 12 7 5 5 7
8 9 12 10 5 6 7 14 17 14 4 6 10 7 13 15 10 13 11 12 12 4 4 11 9 6 10 4 8 9 10 8 9 12 9 7 10 8 9 7 8 3 2 5 7
4 5 8 6 5 6 9 14 11 5 2 7 13 15 14 15 10 13 16 11 7 3 3 12 12 10 12 6 12 8 11 7 9 6 8 8 4 10 9 9 6 4 8 5 6
6 6 8 4 7 8 12 18 7 7 5 8 10 15 16 8 16 6 14 8 4 8 6 4 8 9 17 14 3 6 11 13 10 12 9 10 9 12 7 3 5 6 12 13 11
6 10 7 6 8 11 15 12 6 9 12 9 10 10 14 12 8 8 12 11 6 2 4 6 5 9 15 16 13 8 4 11 9 8 11 10 10 4 9 2 4 10 6 5 6
5 4 7 7 11 15 14 11 9 10 12 9 10 11 10 10 11 8 12 9 7 8 7 2 10 10 12 17 12 10 10 10 11 8 12 13 15 13 14 12 8 8 8 5 5
5 4 8 5 1 10 10 12 9 9 9 11 9 14 9 12 11 12 12 8 8 10 3 4 11 14 16 16 17 17 18 17 17 17 17 18 19 14 9 10 9 10 8 7 9
6 6 11 12 12 9 6 9 13 15 12 9 11 15 12 13 12 14 11 12 11 15 9 8 13 11 14 15 17 21 20 19 19 20 21 19 18 6 10 11 12 11 11 11 10
9 12 7 9 11 9 12 14 13 9 13 6 10 11 12 12 14 15 11 7 7 5 9 6 8 9 14 14 18 16 18 18 17 15 16 14 8 11 10 8 8 10 11 9 8
Wind_Direction
346 342 340 337 337 333 330 323 315 307 299 291 290 295 296 305 299 239 241 245 182 172 197 242 234 253 250 265 265 274 274 288 35 47 9 18 359 9 357 5 78 69 86 134 145
345 343 341 339 338 335 330 322 313 302 290 282 280 283 290 309 268 258 217 129 136 162 217 228 230 239 253 256 250 257 292 22 30 2 3 354 353 317 339 31 59 95 102 126 147
346 344 342 340 340 337 331 323 313 299 284 275 268 267 279 286 273 205 137 147 162 183 235 238 262 265 272 268 269 266 316 3 344 35 333 335 297 15 14 40 45 34 123 140 153
346 344 342 340 338 337 333 328 320 303 281 263 257 254 273 245 357 96 155 167 164 202 234 256 252 263 258 274 254 302 293 336 333 346 307 312 352 299 55 43 2 58 137 149 162
345 343 340 339 337 335 332 330 325 311 279 247 230 220 222 226 293 129 145 154 177 201 227 238 243 250 263 296 318 263 273 339 312 326 355 277 50 69 57 340 54 75 145 148 170
343 341 338 337 336 334 332 331 325 313 268 209 194 176 244 258 102 133 153 162 183 199 230 235 251 275 296 277 305 319 325 299 282 114 162 282 124 132 62 343 55 80 87 155 172
340 337 335 334 334 332 331 328 326 329 199 179 180 227 258 300 139 137 156 176 183 216 217 232 268 282 277 289 309 308 267 235 207 112 152 285 150 85 286 84 52 41 61 59 162
337 335 334 331 332 331 328 324 322 335 166 174 181 246 289 136 156 172 196 185 203 234 277 297 240 271 279 289 287 245 228 211 144 232 121 251 104 76 54 70 65 30 104 96 23
337 334 333 330 330 330 323 316 303 274 176 171 210 235 228 140 202 196 215 195 193 229 233 298 276 258 267 243 254 223 247 147 143 132 325 266 116 92 82 89 78 65 39 88 107
337 334 331 329 326 330 317 280 290 283 217 211 261 260 179 200 192 186 207 271 210 196 205 227 235 240 228 245 278 340 340 115 246 134 187 250 119 107 355 110 101 89 71 69 58
336 333 330 328 324 331 328 226 208 200 232 255 143 256 160 107 142 206 191 222 221 219 236 188 227 233 217 23 6 326 317 312 302 93 309 282 67 109 98 98 114 116 115 92 78
334 333 329 327 322 318 273 306 31 328 290 228 252 258 168 164 187 204 181 208 208 234 213 219 231 299 19 349 313 296 279 261 154 129 277 283 209 201 159 111 104 129 106 100 101
333 332 330 326 318 297 280 18 315 306 261 226 204 214 194 212 230 174 190 218 231 237 225 265 78 51 316 252 248 242 256 16 338 330 255 249 258 219 140 151 131 118 121 109 91
331 330 331 331 301 340 298 356 324 19 268 158 194 213 173 215 234 168 192 221 233 264 219 259 80 340 274 279 320 339 20 331 293 282 281 326 263 158 152 166 170 132 108 102 98
329 329 327 318 307 311 351 318 335 249 277 145 140 130 178 211 131 173 182 229 265 236 247 246 124 213 252 303 27 309 353 301 286 278 272 266 249 169 157 170 160 125 98 88 92
326 324 332 188 231 255 322 319 262 238 251 158 144 190 179 212 188 156 197 236 276 295 238 280 44 334 297 6 286 308 295 277 257 248 251 242 244 136 172 179 144 119 111 98 97
323 315 312 297 262 335 312 284 236 245 133 159 177 184 203 195 217 178 196 206 236 212 233 227 218 210 321 273 233 244 276 308 306 215 254 66 212 103 120 101 96 106 115 93 158
323 309 256 234 279 276 291 256 252 264 224 67 248 183 203 218 205 189 210 224 215 260 283 261 263 170 154 252 344 319 339 295 303 310 355 129 228 123 116 118 117 129 122 201 58
318 289 239 225 223 275 266 239 235 253 342 91 217 270 222 245 210 208 227 251 241 214 235 287 5 89 129 111 194 216 265 326 312 286 272 270 118 158 136 141 145 169 82 15 4
318 291 261 186 221 242 253 253 283 312 350 343 280 223 249 226 190 233 251 221 243 141 350 287 298 224 175 161 251 244 306 295 267 257 286 316 343 106 130 167 112 106 16 331 17
273 261 119 170 214 235 240 249 256 200 328 276 271 269 281 273 267 206 235 249 198 132 212 277 276 269 143 200 253 178 239 217 291 305 307 295 58 90 72 54 20 323 295 19 340
297 256 125 223 231 233 241 240 295 284 193 255 272 290 292 268 268 261 268 28 90 180 277 253 290 256 264 292 227 275 293 304 281 282 272 311 292 101 105 75 346 331 48 43 23
298 296 282 223 246 235 244 237 259 264 248 259 238 252 268 279 281 272 270 82 87 207 10 337 254 258 250 249 221 206 282 281 251 275 266 274 280 277 167 191 18 87 59 33 356
280 278 202 213 254 283 294 297 224 207 284 312 285 282 255 259 261 248 267 139 130 70 41 327 276 293 285 307 314 296 257 222 259 269 279 276 286 293 337 344 22 11 344 37 330
244 283 20 281 253 279 263 278 284 223 191 263 242 258 246 259 246 242 239 255 147 148 207 261 260 272 275 284 295 294 289 286 278 279 274 282 289 307 1 27 7 7 20 352 334
296 344 347 304 295 291 275 264 266 274 277 195 235 270 229 256 253 265 254 240 235 155 190 240 255 259 278 287 282 277 276 274 272 271 273 277 280 340 49 25 5 354 342 335 331
12 332 289 292 287 249 260 258 249 266 271 304 298 309 256 17 350 331 311 300 329 270 208 201 265 277 270 291 296 283 270 267 273 275 273 271 310 45 32 4 352 333 317 302 18